Flag for Canada Weather past 2 weeks in Greater Sudbury, Ontario, Canada

Now
68 °F

Broken clouds.


Feels Like: 68 °F
Forecast: 54 / 73 °F
Wind: 8 mph from Southwest

Location: Sudbury

Current Time: Aug 1, 2015 at 12:13:14 PM

Latest Report: Aug 1, 2015 at 11:00 AM


Visibility: 20 mi

Pressure: 29.79 "Hg

Humidity: 64%

Dew point: 55 °F

Location of Greater SudburyLocation

Historic Weather in Greater Sudbury — Graph

°F

Greater Sudbury temperature yesterday

Maximum temperature yesterday: 79 °F (at 1:00 PM)
Minimum temperature yesterday: 55 °F (at 6:00 AM)
Average temperature yesterday: 63 °F

Past Weeks' High & Low Weather Summary

 TemperatureHumidityPressure
High91 °F (Jul 28, 4:00 PM)100% (Jul 17, 5:00 PM)30.01 "Hg (Jul 17, 5:00 PM)
Low50 °F (Jul 22, 2:00 AM)27% (Jul 24, 6:00 PM)29.54 "Hg (Jul 20, 6:00 PM)
Average68 °F71%29.82 "Hg
* Reported Jul 17 11:00 AM — Aug 1 11:00 AM, Greater Sudbury, Weather by CustomWeather, © 2015

Note: Actual official high and low records may vary slightly from our data, if they occured in-between our weather recording intervals... More about our weather records

Advertising

Greater Sudbury weather history for previous 24 hours

 ConditionsComfort  
Time TempWeatherWind HumidityBarometerVisibility
11:00 AM
Sat, Aug 1
68 °FBroken clouds.8 mph64%29.79 "Hg20 mi
10:00 AM63 °FPartly sunny.5 mph77%29.80 "Hg20 mi
9:00 AM59 °FPartly sunny.6 mph88%29.79 "Hg20 mi
8:00 AM55 °FPartly sunny.5 mph94%29.78 "Hg20 mi
7:00 AM54 °FFog.5 mph100%29.78 "Hg15 mi
6:00 AM54 °FPassing clouds.6 mph94%29.77 "Hg20 mi
5:00 AM54 °FPassing clouds.7 mph94%29.76 "Hg15 mi
4:00 AM55 °FPassing clouds.7 mph94%29.76 "Hg15 mi
3:00 AM55 °FPassing clouds.7 mph94%29.75 "Hg15 mi
2:00 AM57 °FPassing clouds.6 mph88%29.75 "Hg15 mi
1:00 AM55 °FPassing clouds.6 mph94%29.75 "Hg15 mi
12:00 AM57 °FPassing clouds.5 mph94%29.75 "Hg15 mi
11:00 PM
Fri, Jul 31
59 °FPassing clouds.3 mph94%29.75 "Hg15 mi
10:00 PM59 °FPassing clouds.3 mph88%29.74 "Hg15 mi
9:00 PM63 °FBroken clouds.5 mph73%29.73 "Hg20 mi
8:00 PM64 °FBroken clouds.6 mph68%29.72 "Hg20 mi
7:00 PM64 °FPartly sunny.3 mph83%29.71 "Hg20 mi
6:00 PM66 °FBroken clouds.3 mph73%29.71 "Hg20 mi
5:00 PM61 °FThunderstorms. Partly sunny.2 mph83%29.71 "Hg20 mi
4:00 PM66 °FPartly sunny.6 mph78%29.67 "Hg15 mi
3:00 PM72 °FPartly sunny.9 mph61%29.69 "Hg20 mi
2:00 PM70 °FThunderstorms. Partly sunny.6 mph78%29.70 "Hg15 mi
1:00 PM79 °FPartly sunny.13 mph48%29.72 "Hg20 mi
12:00 PM73 °FScattered clouds.12 mph53%29.74 "Hg20 mi
Weather by CustomWeather, © 2015

See weather overviewHow to use our weather pages